Weather in El Seibo

Dominican Republic     18°46′01″N   69°02′32″W
temp.,
°C
wind,
m/s
gust,
m/s
humid.,
%
clouds,
%
prec.,
mm/h
press.,
hPa
HPBL,
m
7 december, tue
tue723:00+22ne39920 0.0 1018215
02:00+21ne24930 0.0 101784
05:00+21ne229315 0.0 101618
08:00+23ne29884 0.0 1018357
11:00+27ene677016 0.1 10191226
14:00+27ene67683 0.7 10161085
17:00+25ene477781 0.0 1015455
20:00+21ne229134 0.0 101720
8 december, wed
wed823:00+21ne22911 0.0 101825
02:00+20ne22880 0.0 101621
05:00+20ne22892 0.0 101623
08:00+22ne29850 0.0 1018263
11:00+27ene56620 0.0 10181244
14:00+28ene556115 0.0 10161471
17:00+25ene46781 0.1 1015602
20:00+21ne24910 0.1 101779
9 december, thu
thu923:00+21nne23937 0.0 101853
02:00+21nne229416 0.1 101725
05:00+21nne22943 0.0 101625
08:00+22nne149018 0.1 1018181
11:00+27ne57683 0.1 10181254
14:00+28ne56610 0.1 10161466
17:00+25ne47814 0.3 1016657
20:00+22nne23934 0.3 101759
10 december, fri
fri1023:00+21nne23944 0.1 101772
02:00+21nne229410 0.3 101639
05:00+21nne22944 0.1 101636
08:00+22ne28915 0.1 1017444
11:00+27ne586818 0.1 10171248
14:00+28ne67631 0.3 10151408
17:00+25ne48791 0.2 1014853
20:00+22nne23922 0.3 101667
11 december, sat
sat1123:00+21nne23933 0.1 101643
02:00+21nne239412 0.1 101559
05:00+21nne24946 0.1 101483
08:00+22nne29913 0.1 1016519
11:00+27ene797218 0.2 10161188
14:00+27ene687015 0.6 10141264
17:00+25ne59790 0.3 1013810
20:00+22ne410880 0.3 1015361